Springfield, IL

3:07 PM CST on February 25, 2017 (GMT -0600)
Capital

Weather History for KSPI - January, 2014

Change the Weather History Date:

Wednesday, January 15, 2014

  Actual Average Record
Temperature  
Mean Temperature 22 °F 26 °F  
Max Temperature 26 °F 35 °F 65 °F (1949)
Min Temperature 18 °F 18 °F -17 °F (1888)
Degree Days  
Heating Degree Days 43 39  
Month to date heating degree days 652 574  
Since 1 July heating degree days 2998 2714  
Cooling Degree Days 0 0  
Month to date cooling degree days 0 0  
Year to date cooling degree days 0 0  
Moisture  
Dew Point 12 °F    
Average Humidity 64    
Maximum Humidity 73    
Minimum Humidity 55    
Precipitation  
Precipitation T in 0.06 in 0.86 in (1885)
Month to date precipitation 1.83 0.94  
Year to date precipitation 1.83 0.94  
Snow  
Snow T in 0.20 in 5.20 in (1997)
Month to date snowfall 13.6 3.1  
Since 1 July snowfall 22.5 9.3  
Snow Depth 0.00 in    
Sea Level Pressure  
Sea Level Pressure 30.11 in    
Wind  
Wind Speed 11 mph (West)    
Max Wind Speed 21 mph    
Max Gust Speed 25 mph    
Visibility 9 miles    
Events Snow    
T = Trace of Precipitation, MM = Missing Value Source: NWS Daily Summary

Daily Weather History Graph

Daily Weather History Graph

Search for Another Location

Airport or City:

Trip Planner

Search our weather history database for the weather conditions in past years. The results will help you decide how hot, cold, wet, or windy it might be!

Date:

Astronomy

Jan. 15, 2014 Rise Set
Actual Time 7:18 AM CST 4:58 PM CST
Civil Twilight 6:48 AM CST 5:28 PM CST
Nautical Twilight 6:15 AM CST 6:01 PM CST
Astronomical Twilight 5:42 AM CST 6:33 PM CST
Moon 4:56 PM CST (1/15) 6:34 AM CST (1/15)
Length of Visible Light 10h 39m
Length of Day
9h 40m
Full, 100% of the Moon is Illuminated
Jan 15
Full
Jan 15
Full
Jan 23
Last Quarter
Jan 30
New
Feb 6
First Quarter

Hourly Weather History & Observations

Time (CST) Temp. Windchill Dew Point Humidity Pressure Visibility Wind Dir Wind Speed Gust Speed Precip Events Conditions
12:52 AM 25.0 °F 12.2 °F 15.1 °F 66% 30.06 in 10.0 mi WNW 16.1 mph 24.2 mph N/A   Overcast
1:42 AM 24.8 °F 13.4 °F 15.8 °F 69% 30.06 in 9.0 mi WNW 12.7 mph - 0.00 in   Overcast
1:49 AM 24.8 °F 14.0 °F 15.8 °F 69% 30.06 in 10.0 mi NW 11.5 mph - 0.00 in   Overcast
1:52 AM 25.0 °F 12.2 °F 15.1 °F 66% 30.08 in 10.0 mi NW 16.1 mph - 0.00 in   Overcast
2:04 AM 24.8 °F 11.9 °F 15.8 °F 69% 30.07 in 10.0 mi NW 16.1 mph - N/A   Overcast
2:13 AM 24.8 °F 12.4 °F 14.0 °F 64% 30.07 in 10.0 mi NW 15.0 mph 23.0 mph N/A   Overcast
2:22 AM 24.8 °F 10.3 °F 12.2 °F 59% 30.07 in 10.0 mi NW 20.7 mph 25.3 mph N/A   Overcast
2:52 AM 24.1 °F 12.0 °F 12.9 °F 62% 30.09 in 10.0 mi NW 13.8 mph - N/A   Overcast
3:52 AM 23.0 °F 10.1 °F 12.9 °F 65% 30.11 in 10.0 mi WNW 15.0 mph 20.7 mph N/A   Overcast
4:52 AM 21.0 °F 9.3 °F 10.9 °F 65% 30.12 in 10.0 mi NW 11.5 mph - 0.00 in   Overcast
5:52 AM 19.9 °F 7.3 °F 10.9 °F 68% 30.13 in 10.0 mi NW 12.7 mph - N/A   Overcast
6:52 AM 19.0 °F 6.1 °F 9.0 °F 65% 30.15 in 10.0 mi NW 12.7 mph 21.9 mph N/A   Overcast
7:52 AM 18.0 °F 4.8 °F 9.0 °F 68% 30.17 in 9.0 mi WNW 12.7 mph - 0.00 in   Overcast
8:52 AM 19.0 °F 6.1 °F 9.0 °F 65% 30.19 in 6.0 mi NW 12.7 mph - 0.00 in Snow Light Snow
9:10 AM 17.6 °F 5.0 °F 10.4 °F 73% 30.18 in 1.8 mi WNW 11.5 mph - 0.00 in Snow Light Snow
9:18 AM 17.6 °F 3.2 °F 10.4 °F 73% 30.17 in 3.0 mi WNW 15.0 mph 18.4 mph 0.00 in Snow Light Snow
9:52 AM 19.0 °F 6.1 °F 10.0 °F 68% 30.20 in 4.0 mi NW 12.7 mph - 0.00 in Snow Light Snow
10:52 AM 19.0 °F 7.5 °F 10.0 °F 68% 30.21 in 5.0 mi WNW 10.4 mph - 0.00 in Snow Light Snow
11:52 AM 21.0 °F 10.6 °F 10.0 °F 63% 30.18 in 10.0 mi WNW 9.2 mph - 0.00 in   Overcast
12:52 PM 21.9 °F 11.7 °F 10.0 °F 60% 30.16 in 10.0 mi WSW 9.2 mph - N/A   Overcast
1:52 PM 24.1 °F 13.7 °F 10.9 °F 57% 30.15 in 10.0 mi West 10.4 mph - N/A   Mostly Cloudy
2:52 PM 25.0 °F 17.1 °F 12.0 °F 58% 30.14 in 10.0 mi West 6.9 mph - N/A   Mostly Cloudy
3:52 PM 25.0 °F 14.2 °F 12.9 °F 60% 30.14 in 10.0 mi West 11.5 mph - N/A   Scattered Clouds
4:44 PM 24.8 °F 15.3 °F 12.2 °F 59% 30.11 in 10.0 mi WSW 9.2 mph - N/A   Mostly Cloudy
4:52 PM 24.1 °F 12.5 °F 12.0 °F 60% 30.13 in 10.0 mi WSW 12.7 mph - N/A   Mostly Cloudy
5:07 PM 24.8 °F 15.3 °F 12.2 °F 59% 30.10 in 10.0 mi WSW 9.2 mph - N/A   Scattered Clouds
5:52 PM 23.0 °F 14.7 °F 12.9 °F 65% 30.12 in 10.0 mi SW 6.9 mph - N/A   Partly Cloudy
6:52 PM 21.0 °F 14.6 °F 12.9 °F 71% 30.09 in 10.0 mi SSW 4.6 mph - N/A   Clear
7:52 PM 19.9 °F 12.1 °F 12.9 °F 74% 30.08 in 10.0 mi SSW 5.8 mph - N/A   Clear
8:52 PM 19.9 °F 12.1 °F 12.9 °F 74% 30.04 in 10.0 mi South 5.8 mph - N/A   Clear
9:52 PM 23.0 °F 13.1 °F 14.0 °F 68% 30.02 in 10.0 mi South 9.2 mph - N/A   Mostly Cloudy
10:52 PM 24.1 °F 13.7 °F 14.0 °F 65% 29.98 in 10.0 mi South 10.4 mph - N/A   Overcast
11:52 PM 26.1 °F 15.6 °F 15.1 °F 63% 29.96 in 10.0 mi South 11.5 mph - N/A   Overcast